| time (UTC) | temp F | wind direction | speed MPH | gust MPH | rain 1hr in | rain 24hr in | rain mn in | humidity % | barometer mb |
| 20260509054347 | 50 | 90 | 1.0 | 4.0 | 0.00 | 0.04 | 0.00 | 98 | 1017.5 |
| 20260509053105 | 49 | 0 | 1.0 | 4.0 | 0.00 | 0.04 | 0.00 | 96 | 1017.3 |
| 20260509051835 | 49 | 0 | 1.0 | 4.0 | 0.00 | 0.04 | 0.00 | 96 | 1017.3 |
| 20260509050405 | 51 | 0 | 2.0 | 6.0 | 0.00 | 0.04 | 0.00 | 96 | 1017.3 |
| 20260509045115 | 51 | 0 | 2.0 | 6.0 | 0.00 | 0.04 | 0.00 | 96 | 1017.3 |
| 20260509043805 | 51 | 0 | 2.0 | 6.0 | 0.00 | 0.04 | 0.00 | 96 | 1017.3 |
| 20260509042420 | 51 | 315 | 4.0 | 6.0 | 0.00 | 0.04 | 0.00 | 96 | 1017.3 |
| 20260509041035 | 51 | 315 | 4.0 | 6.0 | 0.00 | 0.04 | 0.00 | 96 | 1017.3 |
| 20260509035712 | 51 | 0 | 4.0 | 6.0 | 0.00 | 0.04 | 0.00 | 97 | 1017.4 |
| 20260509034405 | 51 | 0 | 4.0 | 6.0 | 0.00 | 0.04 | 0.00 | 97 | 1017.4 |
| 20260509033034 | 51 | 315 | 2.0 | 4.0 | 0.00 | 0.04 | 0.00 | 98 | 1017.2 |
| 20260509031625 | 51 | 315 | 2.0 | 4.0 | 0.00 | 0.04 | 0.00 | 98 | 1017.2 |
| 20260509030355 | 51 | 0 | 3.0 | 4.0 | 0.00 | 0.04 | 0.00 | 97 | 1017.1 |
| 20260509025035 | 51 | 0 | 3.0 | 4.0 | 0.00 | 0.04 | 0.00 | 97 | 1017.1 |
| 20260509023655 | 51 | 0 | 3.0 | 4.0 | 0.00 | 0.04 | 0.00 | 97 | 1017.1 |
| 20260509022306 | 51 | 0 | 3.0 | 4.0 | 0.00 | 0.04 | 0.00 | 98 | 1017.0 |
| 20260509021026 | 51 | 0 | 3.0 | 4.0 | 0.00 | 0.04 | 0.00 | 98 | 1017.0 |
| 20260509015703 | 50 | 315 | 2.0 | 6.0 | 0.00 | 0.04 | 0.00 | 96 | 1017.1 |
| 20260509014355 | 50 | 315 | 2.0 | 6.0 | 0.00 | 0.04 | 0.00 | 96 | 1017.1 |
| 20260509013040 | 51 | 315 | 2.0 | 4.0 | 0.00 | 0.04 | 0.00 | 94 | 1016.8 |
| 20260509011715 | 51 | 315 | 2.0 | 4.0 | 0.00 | 0.04 | 0.00 | 94 | 1016.8 |
| 20260509010344 | 53 | 315 | 5.0 | 9.0 | 0.00 | 0.04 | 0.00 | 91 | 1016.8 |
| 20260509004905 | 53 | 315 | 5.0 | 9.0 | 0.00 | 0.04 | 0.00 | 91 | 1016.8 |
| 20260509003615 | 53 | 315 | 5.0 | 9.0 | 0.00 | 0.04 | 0.00 | 91 | 1016.8 |
| 20260509002300 | 54 | 315 | 3.0 | 7.0 | 0.00 | 0.04 | 0.04 | 84 | 1016.6 |
| 20260509000955 | 54 | 315 | 3.0 | 7.0 | 0.00 | 0.04 | 0.04 | 84 | 1016.6 |
| 20260508235500 | 55 | 0 | 7.0 | 18.0 | 0.00 | 0.04 | 0.04 | 82 | 1017.3 |
| 20260508234042 | 55 | 0 | 7.0 | 18.0 | 0.00 | 0.04 | 0.04 | 82 | 1017.3 |
| 20260508232633 | 55 | 0 | 11.0 | 17.0 | 0.00 | 0.03 | 0.03 | 84 | 1017.2 |
| 20260508231209 | 55 | 0 | 11.0 | 17.0 | 0.00 | 0.03 | 0.03 | 84 | 1017.2 |
| 20260508225840 | 56 | 270 | 11.0 | 22.0 | 0.03 | 0.03 | 0.03 | 80 | 1017.1 |
| 20260508224439 | 56 | 270 | 11.0 | 22.0 | 0.03 | 0.03 | 0.03 | 80 | 1017.1 |
| 20260508223101 | 60 | 270 | 6.0 | 11.0 | 0.00 | 0.00 | 0.00 | 65 | 1016.4 |
| 20260508221745 | 60 | 270 | 6.0 | 11.0 | 0.00 | 0.00 | 0.00 | 65 | 1016.4 |
| 20260508220440 | 57 | 315 | 4.0 | 9.0 | 0.00 | 0.00 | 0.00 | 68 | 1015.9 |
| 20260508215110 | 57 | 315 | 4.0 | 9.0 | 0.00 | 0.00 | 0.00 | 68 | 1015.9 |
| 20260508213724 | 57 | 315 | 4.0 | 9.0 | 0.00 | 0.00 | 0.00 | 68 | 1015.9 |
| 20260508212320 | 60 | 0 | 6.0 | 9.0 | 0.00 | 0.00 | 0.00 | 59 | 1015.2 |
| 20260508210955 | 60 | 0 | 6.0 | 9.0 | 0.00 | 0.00 | 0.00 | 59 | 1015.2 |
| 20260508205533 | 61 | 45 | 6.0 | 11.0 | 0.00 | 0.00 | 0.00 | 58 | 1014.9 |
| 20260508204320 | 61 | 45 | 6.0 | 11.0 | 0.00 | 0.00 | 0.00 | 58 | 1014.9 |
| 20260508203015 | 61 | 0 | 6.0 | 9.0 | 0.00 | 0.00 | 0.00 | 57 | 1014.4 |
| 20260508201700 | 61 | 0 | 6.0 | 9.0 | 0.00 | 0.00 | 0.00 | 57 | 1014.4 |
| 20260508200330 | 59 | 45 | 6.0 | 7.0 | 0.00 | 0.00 | 0.00 | 67 | 1014.0 |
| 20260508195024 | 59 | 45 | 6.0 | 7.0 | 0.00 | 0.00 | 0.00 | 67 | 1014.0 |
| 20260508193630 | 59 | 45 | 6.0 | 7.0 | 0.00 | 0.00 | 0.00 | 67 | 1014.0 |
| 20260508192355 | 60 | 45 | 4.0 | 6.0 | 0.00 | 0.00 | 0.00 | 66 | 1013.6 |
| 20260508191020 | 60 | 45 | 4.0 | 6.0 | 0.00 | 0.00 | 0.00 | 66 | 1013.6 |
| 20260508185640 | 66 | 45 | 4.0 | 7.0 | 0.00 | 0.00 | 0.00 | 48 | 1012.7 |
| 20260508184345 | 66 | 45 | 4.0 | 7.0 | 0.00 | 0.00 | 0.00 | 48 | 1012.7 |
| 20260508183045 | 69 | 45 | 5.0 | 11.0 | 0.00 | 0.00 | 0.00 | 43 | 1012.0 |
| 20260508181810 | 69 | 45 | 5.0 | 11.0 | 0.00 | 0.00 | 0.00 | 43 | 1012.0 |
| 20260508180414 | 69 | 45 | 5.0 | 11.0 | 0.00 | 0.00 | 0.00 | 43 | 1012.0 |
| 20260508175030 | 69 | 45 | 5.0 | 11.0 | 0.00 | 0.00 | 0.00 | 43 | 1012.0 |
| 20260508173740 | 69 | 45 | 5.0 | 11.0 | 0.00 | 0.00 | 0.00 | 43 | 1012.0 |
| 20260508172400 | 69 | 45 | 4.0 | 11.0 | 0.00 | 0.00 | 0.00 | 40 | 1012.0 |
| 20260508171115 | 69 | 45 | 4.0 | 11.0 | 0.00 | 0.00 | 0.00 | 40 | 1012.0 |
| 20260508165640 | 69 | 45 | 5.0 | 11.0 | 0.00 | 0.00 | 0.00 | 39 | 1012.1 |
| 20260508164340 | 69 | 45 | 5.0 | 11.0 | 0.00 | 0.00 | 0.00 | 39 | 1012.1 |
| 20260508163000 | 69 | 45 | 6.0 | 11.0 | 0.00 | 0.00 | 0.00 | 39 | 1012.3 |
| 20260508161730 | 69 | 45 | 6.0 | 11.0 | 0.00 | 0.00 | 0.00 | 39 | 1012.3 |
| 20260508160330 | 68 | 90 | 5.0 | 11.0 | 0.00 | 0.00 | 0.00 | 43 | 1012.6 |
| 20260508154956 | 68 | 90 | 5.0 | 11.0 | 0.00 | 0.00 | 0.00 | 43 | 1012.6 |
| 20260508153545 | 69 | 90 | 6.0 | 11.0 | 0.00 | 0.00 | 0.00 | 47 | 1012.9 |
| 20260508152310 | 69 | 90 | 6.0 | 11.0 | 0.00 | 0.00 | 0.00 | 47 | 1012.9 |
| 20260508150920 | 69 | 90 | 6.0 | 11.0 | 0.00 | 0.00 | 0.00 | 47 | 1012.9 |
| 20260508145520 | 67 | 90 | 7.0 | 14.0 | 0.00 | 0.00 | 0.00 | 44 | 1013.2 |
| 20260508144100 | 67 | 90 | 7.0 | 14.0 | 0.00 | 0.00 | 0.00 | 44 | 1013.2 |
| 20260508142755 | 67 | 45 | 7.0 | 12.0 | 0.00 | 0.00 | 0.00 | 48 | 1013.8 |
| 20260508141438 | 67 | 45 | 7.0 | 12.0 | 0.00 | 0.00 | 0.00 | 48 | 1013.8 |
| 20260508140140 | 66 | 90 | 6.0 | 14.0 | 0.00 | 0.00 | 0.00 | 50 | 1014.2 |
| 20260508134905 | 66 | 90 | 6.0 | 14.0 | 0.00 | 0.00 | 0.00 | 50 | 1014.2 |
| 20260508133550 | 65 | 90 | 5.0 | 14.0 | 0.00 | 0.00 | 0.00 | 52 | 1014.4 |
| 20260508132350 | 65 | 90 | 5.0 | 14.0 | 0.00 | 0.00 | 0.00 | 52 | 1014.4 |
| 20260508131038 | 65 | 90 | 5.0 | 14.0 | 0.00 | 0.00 | 0.00 | 52 | 1014.4 |
| 20260508125830 | 64 | 90 | 4.0 | 11.0 | 0.00 | 0.00 | 0.00 | 58 | 1014.6 |
| 20260508124505 | 64 | 90 | 4.0 | 11.0 | 0.00 | 0.00 | 0.00 | 58 | 1014.6 |
| 20260508123105 | 62 | 90 | 4.0 | 9.0 | 0.00 | 0.00 | 0.00 | 57 | 1015.1 |
| 20260508121715 | 62 | 90 | 4.0 | 9.0 | 0.00 | 0.00 | 0.00 | 57 | 1015.1 |
| 20260508120300 | 62 | 135 | 4.0 | 10.0 | 0.00 | 0.00 | 0.00 | 60 | 1015.4 |
| 20260508114930 | 62 | 135 | 4.0 | 10.0 | 0.00 | 0.00 | 0.00 | 60 | 1015.4 |
| 20260508113555 | 60 | 135 | 4.0 | 9.0 | 0.00 | 0.00 | 0.00 | 62 | 1015.8 |
| 20260508112120 | 60 | 135 | 4.0 | 9.0 | 0.00 | 0.00 | 0.00 | 62 | 1015.8 |
| 20260508110855 | 60 | 135 | 4.0 | 9.0 | 0.00 | 0.00 | 0.00 | 62 | 1015.8 |
| 20260508105445 | 60 | 90 | 6.0 | 10.0 | 0.00 | 0.00 | 0.00 | 64 | 1015.9 |
| 20260508104131 | 60 | 90 | 6.0 | 10.0 | 0.00 | 0.00 | 0.00 | 64 | 1015.9 |
| 20260508102815 | 59 | 180 | 2.0 | 9.0 | 0.00 | 0.00 | 0.00 | 65 | 1016.2 |
| 20260508101440 | 59 | 180 | 2.0 | 9.0 | 0.00 | 0.00 | 0.00 | 65 | 1016.2 |
| 20260508100140 | 58 | 45 | 3.0 | 9.0 | 0.00 | 0.00 | 0.00 | 66 | 1016.2 |
| 20260508094755 | 58 | 45 | 3.0 | 9.0 | 0.00 | 0.00 | 0.00 | 66 | 1016.2 |
| 20260508093420 | 56 | 90 | 6.0 | 9.0 | 0.00 | 0.00 | 0.00 | 67 | 1016.3 |
| 20260508092140 | 56 | 90 | 6.0 | 9.0 | 0.00 | 0.00 | 0.00 | 67 | 1016.3 |
| 20260508090820 | 56 | 90 | 6.0 | 9.0 | 0.00 | 0.00 | 0.00 | 67 | 1016.3 |
| 20260508085431 | 55 | 0 | 2.0 | 7.0 | 0.00 | 0.00 | 0.00 | 73 | 1016.5 |
| 20260508084040 | 55 | 0 | 2.0 | 7.0 | 0.00 | 0.00 | 0.00 | 73 | 1016.5 |
| 20260508082555 | 55 | 270 | 2.0 | 7.0 | 0.00 | 0.00 | 0.00 | 74 | 1016.4 |
| 20260508081130 | 55 | 270 | 2.0 | 7.0 | 0.00 | 0.00 | 0.00 | 74 | 1016.4 |
| 20260508075905 | 53 | 225 | 2.0 | 4.0 | 0.00 | 0.00 | 0.00 | 76 | 1016.6 |
| 20260508074630 | 53 | 225 | 2.0 | 4.0 | 0.00 | 0.00 | 0.00 | 76 | 1016.6 |
| 20260508073135 | 51 | 270 | 2.0 | 4.0 | 0.00 | 0.00 | 0.00 | 78 | 1016.9 |
| 20260508071805 | 51 | 270 | 2.0 | 4.0 | 0.00 | 0.00 | 0.00 | 78 | 1016.9 |
| 20260508070520 | 50 | 315 | 2.0 | 5.0 | 0.00 | 0.00 | 0.00 | 84 | 1016.7 |
| 20260508065218 | 50 | 315 | 2.0 | 5.0 | 0.00 | 0.00 | 0.00 | 84 | 1016.7 |
| 20260508063840 | 50 | 315 | 2.0 | 5.0 | 0.00 | 0.00 | 0.00 | 84 | 1016.7 |
| 20260508062500 | 47 | 0 | 2.0 | 4.0 | 0.00 | 0.01 | 0.00 | 89 | 1016.9 |
| 20260508061140 | 47 | 0 | 2.0 | 4.0 | 0.00 | 0.01 | 0.00 | 89 | 1016.9 |
| 20260508055705 | 43 | 0 | 1.0 | 4.0 | 0.00 | 0.01 | 0.00 | 93 | 1017.0 |